weather.gov     
National Weather Service

Terminal Aerodrome Forecast
NWS Homepage
This page is being discontinued on March 12, 2014.
The same data is available at this site. Please update your bookmarks.
Thank you, and we apologize for the inconvenience.
Please send an email to SR-SRH.Webmaster@noaa.gov with any concerns.


Current Version
Previous Version:    01  02  03  04  05  06  07  08  09  10  11  12  13  14  15  16  17  18  19  20  21  22  23  24  25  26  27  28  29  30  
   31  32  33  34  35  36  37  38  39  40  41  42  43  44  45  46  47  48  49  50  51  
[Printable]
050
FTAK31 PAFA 222320
TAFAQT
TAF
PAQT 222320Z 2300/2324 06022G28KT 3SM -SHSN BR BKN012 OVC020
     FM231200 09018KT 4SM -SHSN BLSN BR BKN015 OVC025
     FM231800 09015KT P6SM -SHSN BKN015 OVC025=




050
FTAK31 PAFA 222320
TAFAQT
TAF
PAQT 222320Z 2300/2324 06022G28KT 3SM -SHSN BR BKN012 OVC020
     FM231200 09018KT 4SM -SHSN BLSN BR BKN015 OVC025
     FM231800 09015KT P6SM -SHSN BKN015 OVC025=


U.S. Dept. of Commerce
NOAA National Weather Service
1325 East West Highway
Silver Spring, MD 20910
E-mail: w-nws.webmaster@noaa.gov
Page last modified: May 16, 2007
NATIONAL WEATHER SERVICE: for Safety, for Work, for Fun - FOR LIFE